Time,TemperatureF,DewpointF,PressureIn,WindDirection,WindDirectionDegrees,WindSpeedMPH,WindSpeedGustMPH,Humidity,HourlyPrecipIn,Conditions,Clouds,dailyrainin,SoftwareType,DateUTC
2013-04-27 00:11:00,50.7,45.0,30.24,WNW,294,0.0,-999.0,82,-99.99,,,0.00,weatherlink.com 1.10,2013-04-27 04:11:00,
2013-04-27 00:26:00,50.7,45.0,30.24,WNW,294,0.0,-999.0,82,-99.99,,,0.00,weatherlink.com 1.10,2013-04-27 04:26:00,
2013-04-27 00:41:00,51.9,45.0,30.24,ENE,65,0.0,-999.0,76,-99.99,,,0.00,weatherlink.com 1.10,2013-04-27 04:41:00,
2013-04-27 00:56:00,54.4,44.0,30.24,ENE,76,3.0,-999.0,68,-99.99,,,0.00,weatherlink.com 1.10,2013-04-27 04:56:00,
2013-04-27 01:11:00,55.0,44.0,30.24,ENE,66,1.0,-999.0,67,-99.99,,,0.00,weatherlink.com 1.10,2013-04-27 05:11:00,
2013-04-27 01:26:00,55.1,44.0,30.25,ENE,68,0.0,-999.0,67,-99.99,,,0.00,weatherlink.com 1.10,2013-04-27 05:26:00,
2013-04-27 01:41:00,54.1,45.0,30.25,ENE,68,0.0,-999.0,71,-99.99,,,0.00,weatherlink.com 1.10,2013-04-27 05:41:00,
2013-04-27 01:56:00,53.5,45.0,30.25,ENE,68,0.0,-999.0,73,-99.99,,,0.00,weatherlink.com 1.10,2013-04-27 05:56:00,
2013-04-27 02:11:00,53.1,45.0,30.25,ENE,68,0.0,-999.0,73,-99.99,,,0.00,weatherlink.com 1.10,2013-04-27 06:11:00,
2013-04-27 02:26:00,52.9,46.0,30.25,ENE,68,0.0,-999.0,76,-99.99,,,0.00,weatherlink.com 1.10,2013-04-27 06:26:00,
2013-04-27 02:41:00,52.8,45.0,30.25,ENE,68,0.0,-999.0,76,-99.99,,,0.00,weatherlink.com 1.10,2013-04-27 06:41:00,
2013-04-27 02:56:00,52.6,46.0,30.25,ENE,68,0.0,-999.0,79,-99.99,,,0.00,weatherlink.com 1.10,2013-04-27 06:56:00,
2013-04-27 03:11:00,52.5,47.0,30.25,ENE,68,0.0,-999.0,80,-99.99,,,0.00,weatherlink.com 1.10,2013-04-27 07:11:00,
2013-04-27 03:26:00,52.2,46.0,30.24,ENE,68,0.0,-999.0,80,-99.99,,,0.00,weatherlink.com 1.10,2013-04-27 07:26:00,
2013-04-27 03:41:00,52.2,46.0,30.24,ENE,68,0.0,-999.0,79,-99.99,,,0.00,weatherlink.com 1.10,2013-04-27 07:41:00,
2013-04-27 03:56:00,52.0,46.0,30.25,ENE,68,0.0,-999.0,79,-99.99,,,0.00,weatherlink.com 1.10,2013-04-27 07:56:00,
2013-04-27 04:11:00,51.7,46.0,30.25,ENE,68,0.0,-999.0,80,-99.99,,,0.00,weatherlink.com 1.10,2013-04-27 08:11:00,
2013-04-27 04:26:00,51.6,46.0,30.23,ENE,68,0.0,-999.0,80,-99.99,,,0.00,weatherlink.com 1.10,2013-04-27 08:26:00,
2013-04-27 04:41:00,51.3,45.0,30.23,ENE,68,0.0,-999.0,80,-99.99,,,0.00,weatherlink.com 1.10,2013-04-27 08:41:00,
2013-04-27 04:56:00,51.1,45.0,30.23,ENE,68,0.0,-999.0,80,-99.99,,,0.00,weatherlink.com 1.10,2013-04-27 08:56:00,
2013-04-27 05:11:00,51.0,45.0,30.23,ENE,68,0.0,-999.0,80,-99.99,,,0.00,weatherlink.com 1.10,2013-04-27 09:11:00,
2013-04-27 05:26:00,50.8,45.0,30.23,ENE,68,0.0,-999.0,81,-99.99,,,0.00,weatherlink.com 1.10,2013-04-27 09:26:00,
2013-04-27 05:41:00,50.5,45.0,30.22,ENE,68,0.0,-999.0,81,-99.99,,,0.00,weatherlink.com 1.10,2013-04-27 09:41:00,
2013-04-27 05:56:00,50.4,45.0,30.22,ENE,68,0.0,-999.0,81,-99.99,,,0.00,weatherlink.com 1.10,2013-04-27 09:56:00,
2013-04-27 06:11:00,50.2,45.0,30.23,ENE,68,0.0,-999.0,81,-99.99,,,0.00,weatherlink.com 1.10,2013-04-27 10:11:00,
2013-04-27 06:26:00,50.2,45.0,30.23,ENE,68,0.0,-999.0,82,-99.99,,,0.00,weatherlink.com 1.10,2013-04-27 10:26:00,
2013-04-27 06:41:00,50.2,45.0,30.25,ENE,68,0.0,-999.0,83,-99.99,,,0.00,weatherlink.com 1.10,2013-04-27 10:41:00,
2013-04-27 06:56:00,50.2,45.0,30.25,ENE,68,0.0,-999.0,82,-99.99,,,0.00,weatherlink.com 1.10,2013-04-27 10:56:00,
2013-04-27 07:11:00,50.7,45.0,30.25,ENE,68,0.0,-999.0,82,-99.99,,,0.00,weatherlink.com 1.10,2013-04-27 11:11:00,
2013-04-27 07:26:00,51.3,46.0,30.25,ENE,68,0.0,-999.0,81,-99.99,,,0.00,weatherlink.com 1.10,2013-04-27 11:26:00,
2013-04-27 07:41:00,51.6,46.0,30.26,ENE,68,0.0,-999.0,80,-99.99,,,0.00,weatherlink.com 1.10,2013-04-27 11:41:00,
2013-04-27 07:56:00,52.0,46.0,30.26,ENE,68,0.0,-999.0,79,-99.99,,,0.00,weatherlink.com 1.10,2013-04-27 11:56:00,
2013-04-27 08:11:00,55.4,46.0,30.27,ENE,68,0.0,-999.0,70,-99.99,,,0.00,weatherlink.com 1.10,2013-04-27 12:11:00,
2013-04-27 08:26:00,57.2,46.0,30.27,ENE,75,0.0,-999.0,67,-99.99,,,0.00,weatherlink.com 1.10,2013-04-27 12:26:00,
2013-04-27 08:42:00,58.7,47.0,30.27,ENE,72,2.0,-999.0,65,-99.99,,,0.00,weatherlink.com 1.10,2013-04-27 12:42:00,
2013-04-27 08:57:00,59.9,48.0,30.27,East,88,0.0,-999.0,64,-99.99,,,0.00,weatherlink.com 1.10,2013-04-27 12:57:00,
2013-04-27 09:12:00,60.2,46.0,30.26,East,79,3.0,-999.0,60,-99.99,,,0.00,weatherlink.com 1.10,2013-04-27 13:12:00,
2013-04-27 09:27:00,62.6,47.0,30.26,ENE,78,0.0,-999.0,57,-99.99,,,0.00,weatherlink.com 1.10,2013-04-27 13:27:00,
2013-04-27 09:42:00,63.9,47.0,30.25,East,80,2.0,-999.0,54,-99.99,,,0.00,weatherlink.com 1.10,2013-04-27 13:42:00,
2013-04-27 09:57:00,65.0,46.0,30.25,NE,56,0.0,-999.0,51,-99.99,,,0.00,weatherlink.com 1.10,2013-04-27 13:57:00,
2013-04-27 10:12:00,66.8,44.0,30.25,South,184,0.0,-999.0,44,-99.99,,,0.00,weatherlink.com 1.10,2013-04-27 14:12:00,
2013-04-27 10:27:00,67.1,41.0,30.25,ESE,121,1.0,-999.0,39,-99.99,,,0.00,weatherlink.com 1.10,2013-04-27 14:27:00,
2013-04-27 10:42:00,68.1,41.0,30.25,ENE,64,3.0,-999.0,38,-99.99,,,0.00,weatherlink.com 1.10,2013-04-27 14:42:00,
2013-04-27 10:57:00,68.6,43.0,30.25,SE,143,0.0,-999.0,40,-99.99,,,0.00,weatherlink.com 1.10,2013-04-27 14:57:00,
2013-04-27 11:12:00,69.1,38.0,30.25,ESE,113,0.0,-999.0,32,-99.99,,,0.00,weatherlink.com 1.10,2013-04-27 15:12:00,
2013-04-27 11:27:00,69.6,41.0,30.25,East,86,2.0,-999.0,35,-99.99,,,0.00,weatherlink.com 1.10,2013-04-27 15:27:00,
2013-04-27 11:42:00,70.3,40.0,30.24,SSE,151,0.0,-999.0,33,-99.99,,,0.00,weatherlink.com 1.10,2013-04-27 15:42:00,
2013-04-27 11:57:00,70.4,36.0,30.24,East,95,1.0,-999.0,28,-99.99,,,0.00,weatherlink.com 1.10,2013-04-27 15:57:00,
2013-04-27 12:12:00,70.3,38.0,30.23,East,88,0.0,-999.0,31,-99.99,,,0.00,weatherlink.com 1.10,2013-04-27 16:12:00,
2013-04-27 12:27:00,70.1,37.0,30.23,ENE,78,5.0,-999.0,30,-99.99,,,0.00,weatherlink.com 1.10,2013-04-27 16:27:00,
2013-04-27 12:42:00,70.4,38.0,30.22,ENE,69,1.0,-999.0,31,-99.99,,,0.00,weatherlink.com 1.10,2013-04-27 16:42:00,
2013-04-27 12:57:00,71.6,39.0,30.21,NE,52,5.0,-999.0,30,-99.99,,,0.00,weatherlink.com 1.10,2013-04-27 16:57:00,
2013-04-27 13:12:00,71.1,39.0,30.20,ENE,71,6.0,-999.0,31,-99.99,,,0.00,weatherlink.com 1.10,2013-04-27 17:12:00,
2013-04-27 13:27:00,72.0,41.0,30.20,NE,49,0.0,-999.0,33,-99.99,,,0.00,weatherlink.com 1.10,2013-04-27 17:27:00,
2013-04-27 13:42:00,71.3,40.0,30.20,ENE,78,0.0,-999.0,32,-99.99,,,0.00,weatherlink.com 1.10,2013-04-27 17:42:00,
2013-04-27 13:57:00,72.0,41.0,30.20,NNE,31,0.0,-999.0,33,-99.99,,,0.00,weatherlink.com 1.10,2013-04-27 17:57:00,
2013-04-27 14:12:00,71.6,39.0,30.19,East,88,0.0,-999.0,30,-99.99,,,0.00,weatherlink.com 1.10,2013-04-27 18:12:00,
2013-04-27 14:27:00,72.7,39.0,30.19,SE,131,0.0,-999.0,30,-99.99,,,0.00,weatherlink.com 1.10,2013-04-27 18:27:00,
2013-04-27 14:42:00,72.5,39.0,30.19,South,176,0.0,-999.0,30,-99.99,,,0.00,weatherlink.com 1.10,2013-04-27 18:42:00,
2013-04-27 14:58:00,72.8,40.0,30.18,East,93,0.0,-999.0,31,-99.99,,,0.00,weatherlink.com 1.10,2013-04-27 18:58:00,
2013-04-27 15:12:00,72.0,40.0,30.18,ENE,66,1.0,-999.0,31,-99.99,,,0.00,weatherlink.com 1.10,2013-04-27 19:12:00,
2013-04-27 15:27:00,72.5,42.0,30.18,ENE,64,0.0,-999.0,33,-99.99,,,0.00,weatherlink.com 1.10,2013-04-27 19:27:00,
2013-04-27 15:42:00,72.5,39.0,30.17,East,83,0.0,-999.0,30,-99.99,,,0.00,weatherlink.com 1.10,2013-04-27 19:42:00,
2013-04-27 15:57:00,72.8,40.0,30.17,East,83,0.0,-999.0,30,-99.99,,,0.00,weatherlink.com 1.10,2013-04-27 19:57:00,
2013-04-27 16:12:00,72.7,41.0,30.17,East,95,0.0,-999.0,32,-99.99,,,0.00,weatherlink.com 1.10,2013-04-27 20:12:00,
2013-04-27 16:27:00,72.8,42.0,30.16,East,96,0.0,-999.0,33,-99.99,,,0.00,weatherlink.com 1.10,2013-04-27 20:27:00,
2013-04-27 16:42:00,72.5,43.0,30.16,East,95,0.0,-999.0,35,-99.99,,,0.00,weatherlink.com 1.10,2013-04-27 20:42:00,
2013-04-27 16:57:00,70.9,42.0,30.17,East,79,0.0,-999.0,35,-99.99,,,0.00,weatherlink.com 1.10,2013-04-27 20:57:00,
2013-04-27 17:12:00,70.8,44.0,30.16,East,80,0.0,-999.0,38,-99.99,,,0.00,weatherlink.com 1.10,2013-04-27 21:12:00,
2013-04-27 17:27:00,70.4,45.0,30.16,East,80,0.0,-999.0,41,-99.99,,,0.00,weatherlink.com 1.10,2013-04-27 21:27:00,
2013-04-27 17:42:00,69.9,44.0,30.16,East,80,0.0,-999.0,40,-99.99,,,0.00,weatherlink.com 1.10,2013-04-27 21:42:00,
2013-04-27 17:58:00,69.8,47.0,30.16,East,80,0.0,-999.0,44,-99.99,,,0.00,weatherlink.com 1.10,2013-04-27 21:58:00,
2013-04-27 18:13:00,69.4,47.0,30.16,East,80,0.0,-999.0,45,-99.99,,,0.00,weatherlink.com 1.10,2013-04-27 22:13:00,
2013-04-27 18:28:00,69.6,45.0,30.16,East,80,0.0,-999.0,42,-99.99,,,0.00,weatherlink.com 1.10,2013-04-27 22:28:00,
2013-04-27 18:43:00,69.4,49.0,30.16,East,80,0.0,-999.0,48,-99.99,,,0.00,weatherlink.com 1.10,2013-04-27 22:43:00,
2013-04-27 18:58:00,68.9,48.0,30.16,East,80,0.0,-999.0,48,-99.99,,,0.00,weatherlink.com 1.10,2013-04-27 22:58:00,
2013-04-27 19:13:00,68.3,45.0,30.15,East,80,0.0,-999.0,44,-99.99,,,0.00,weatherlink.com 1.10,2013-04-27 23:13:00,
2013-04-27 19:28:00,67.8,48.0,30.15,East,82,0.0,-999.0,49,-99.99,,,0.00,weatherlink.com 1.10,2013-04-27 23:28:00,
2013-04-27 19:43:00,67.1,49.0,30.15,East,82,0.0,-999.0,53,-99.99,,,0.00,weatherlink.com 1.10,2013-04-27 23:43:00,
2013-04-27 19:58:00,66.0,49.0,30.14,East,82,0.0,-999.0,54,-99.99,,,0.00,weatherlink.com 1.10,2013-04-27 23:58:00,
2013-04-27 20:13:00,65.2,49.0,30.14,East,82,0.0,-999.0,57,-99.99,,,0.00,weatherlink.com 1.10,2013-04-28 00:13:00,
2013-04-27 20:28:00,64.5,50.0,30.14,East,82,0.0,-999.0,59,-99.99,,,0.00,weatherlink.com 1.10,2013-04-28 00:28:00,
2013-04-27 20:43:00,63.7,50.0,30.14,East,82,0.0,-999.0,61,-99.99,,,0.00,weatherlink.com 1.10,2013-04-28 00:43:00,
2013-04-27 20:58:00,63.4,50.0,30.15,East,82,0.0,-999.0,62,-99.99,,,0.00,weatherlink.com 1.10,2013-04-28 00:58:00,
2013-04-27 21:13:00,62.9,50.0,30.15,East,82,0.0,-999.0,63,-99.99,,,0.00,weatherlink.com 1.10,2013-04-28 01:13:00,
2013-04-27 21:28:00,62.4,50.0,30.15,East,82,0.0,-999.0,65,-99.99,,,0.00,weatherlink.com 1.10,2013-04-28 01:28:00,
2013-04-27 21:43:00,62.0,50.0,30.16,East,82,0.0,-999.0,66,-99.99,,,0.00,weatherlink.com 1.10,2013-04-28 01:43:00,
2013-04-27 21:58:00,61.8,51.0,30.16,East,82,0.0,-999.0,68,-99.99,,,0.00,weatherlink.com 1.10,2013-04-28 01:58:00,
2013-04-27 22:13:00,61.3,51.0,30.16,East,82,0.0,-999.0,68,-99.99,,,0.00,weatherlink.com 1.10,2013-04-28 02:13:00,
2013-04-27 22:28:00,61.0,51.0,30.16,East,82,0.0,-999.0,69,-99.99,,,0.00,weatherlink.com 1.10,2013-04-28 02:28:00,
2013-04-27 22:43:00,60.9,50.0,30.16,East,80,0.0,-999.0,67,-99.99,,,0.00,weatherlink.com 1.10,2013-04-28 02:43:00,
2013-04-27 22:58:00,62.4,47.0,30.15,ENE,61,0.0,-999.0,58,-99.99,,,0.00,weatherlink.com 1.10,2013-04-28 02:58:00,
2013-04-27 23:13:00,62.4,46.0,30.14,ENE,64,0.0,-999.0,56,-99.99,,,0.00,weatherlink.com 1.10,2013-04-28 03:13:00,
2013-04-27 23:28:00,62.9,-99.9,30.14,ENE,61,0.0,-999.0,-999,-99.99,,,0.00,weatherlink.com 1.10,2013-04-28 03:28:00,
2013-04-27 23:43:00,63.1,46.0,30.14,ENE,64,0.0,-999.0,55,-99.99,,,0.00,weatherlink.com 1.10,2013-04-28 03:43:00,
2013-04-27 23:58:00,62.9,45.0,30.14,ENE,78,0.0,-999.0,53,-99.99,,,0.00,weatherlink.com 1.10,2013-04-28 03:58:00,